Time,TemperatureF,DewpointF,PressureIn,WindDirection,WindDirectionDegrees,WindSpeedMPH,WindSpeedGustMPH,Humidity,HourlyPrecipIn,Conditions,Clouds,dailyrainin,SoftwareType,DateUTC
2013-07-14 00:02:00,69.3,61.0,29.94,SE,138,5.0,10.0,75,0.00,,,0.00,WeatherCatV1.15B25,2013-07-14 05:02:00,
2013-07-14 00:07:00,69.1,61.2,29.94,SSE,162,5.0,7.0,76,0.00,,,0.00,WeatherCatV1.15B25,2013-07-14 05:07:00,
2013-07-14 00:12:00,69.0,61.1,29.95,South,176,4.0,8.0,76,0.00,,,0.00,WeatherCatV1.15B25,2013-07-14 05:12:00,
2013-07-14 00:17:00,69.1,61.2,29.95,SSW,192,4.0,9.0,76,0.00,,,0.00,WeatherCatV1.15B25,2013-07-14 05:17:00,
2013-07-14 00:22:00,69.1,61.2,29.95,SSE,150,4.0,10.0,76,0.00,,,0.00,WeatherCatV1.15B25,2013-07-14 05:22:00,
2013-07-14 00:27:00,69.1,61.2,29.95,SSE,161,6.0,7.0,76,0.00,,,0.00,WeatherCatV1.15B25,2013-07-14 05:27:00,
2013-07-14 00:32:00,69.0,61.5,29.95,South,169,5.0,7.0,77,0.00,,,0.00,WeatherCatV1.15B25,2013-07-14 05:32:00,
2013-07-14 00:37:00,68.9,61.4,29.95,SE,136,4.0,6.0,77,0.00,,,0.00,WeatherCatV1.15B25,2013-07-14 05:37:00,
2013-07-14 00:42:00,68.7,61.6,29.95,SE,125,6.0,8.0,78,0.00,,,0.00,WeatherCatV1.15B25,2013-07-14 05:42:00,
2013-07-14 00:47:00,68.6,61.5,29.95,SSE,158,4.0,9.0,78,0.00,,,0.00,WeatherCatV1.15B25,2013-07-14 05:47:00,
2013-07-14 00:52:00,68.5,61.4,29.95,SSE,150,7.0,8.0,78,0.00,,,0.00,WeatherCatV1.15B25,2013-07-14 05:52:00,
2013-07-14 00:57:00,68.4,61.6,29.95,SSE,157,4.0,7.0,79,0.00,,,0.00,WeatherCatV1.15B25,2013-07-14 05:57:00,
2013-07-14 01:02:00,68.3,61.5,29.95,SE,130,4.0,6.0,79,0.00,,,0.00,WeatherCatV1.15B25,2013-07-14 06:02:00,
2013-07-14 01:07:00,68.2,61.8,29.95,SSE,162,7.0,7.0,80,0.00,,,0.00,WeatherCatV1.15B25,2013-07-14 06:07:00,
2013-07-14 01:12:00,68.2,61.8,29.95,SSE,160,7.0,12.0,80,0.00,,,0.00,WeatherCatV1.15B25,2013-07-14 06:12:00,
2013-07-14 01:17:00,68.2,61.8,29.95,South,173,7.0,8.0,80,0.00,,,0.00,WeatherCatV1.15B25,2013-07-14 06:17:00,
2013-07-14 01:22:00,68.1,62.0,29.95,SSE,153,5.0,9.0,81,0.00,,,0.00,WeatherCatV1.15B25,2013-07-14 06:22:00,
2013-07-14 01:27:00,67.9,61.8,29.95,SE,139,3.0,7.0,81,0.00,,,0.00,WeatherCatV1.15B25,2013-07-14 06:27:00,
2013-07-14 01:32:00,67.9,61.8,29.96,South,173,4.0,6.0,81,0.00,,,0.00,WeatherCatV1.15B25,2013-07-14 06:32:00,
2013-07-14 01:37:00,67.8,62.1,29.96,SE,143,4.0,6.0,82,0.00,,,0.00,WeatherCatV1.15B25,2013-07-14 06:37:00,
2013-07-14 01:42:00,67.8,62.1,29.96,SSE,159,6.0,7.0,82,0.00,,,0.00,WeatherCatV1.15B25,2013-07-14 06:42:00,
2013-07-14 01:47:00,67.8,62.1,29.95,South,169,5.0,9.0,82,0.00,,,0.00,WeatherCatV1.15B25,2013-07-14 06:47:00,
2013-07-14 01:52:00,67.9,62.2,29.96,South,177,4.0,9.0,82,0.00,,,0.00,WeatherCatV1.15B25,2013-07-14 06:52:00,
2013-07-14 01:57:00,67.8,62.1,29.95,SSE,160,9.0,9.0,82,0.00,,,0.00,WeatherCatV1.15B25,2013-07-14 06:57:00,
2013-07-14 02:02:00,67.9,62.2,29.95,SE,146,4.0,7.0,82,0.00,,,0.00,WeatherCatV1.15B25,2013-07-14 07:02:00,
2013-07-14 02:07:00,67.8,62.4,29.95,SE,144,5.0,9.0,83,0.00,,,0.00,WeatherCatV1.15B25,2013-07-14 07:07:00,
2013-07-14 02:12:00,67.8,62.4,29.95,SSE,153,6.0,8.0,83,0.00,,,0.00,WeatherCatV1.15B25,2013-07-14 07:12:00,
2013-07-14 02:17:00,67.9,62.5,29.95,SE,141,7.0,7.0,83,0.00,,,0.00,WeatherCatV1.15B25,2013-07-14 07:17:00,
2013-07-14 02:22:00,68.0,62.3,29.95,SSE,158,3.0,8.0,82,0.00,,,0.00,WeatherCatV1.15B25,2013-07-14 07:22:00,
2013-07-14 02:27:00,68.1,62.4,29.95,SSE,155,7.0,8.0,82,0.00,,,0.00,WeatherCatV1.15B25,2013-07-14 07:27:00,
2013-07-14 02:32:00,68.3,62.6,29.95,South,179,5.0,9.0,82,0.00,,,0.00,WeatherCatV1.15B25,2013-07-14 07:32:00,
2013-07-14 02:37:00,68.3,62.6,29.95,SSE,155,7.0,8.0,82,0.00,,,0.00,WeatherCatV1.15B25,2013-07-14 07:37:00,
2013-07-14 02:42:00,68.2,62.5,29.95,SE,141,9.0,9.0,82,0.00,,,0.00,WeatherCatV1.15B25,2013-07-14 07:42:00,
2013-07-14 02:47:00,68.3,62.6,29.95,South,189,6.0,9.0,82,0.00,,,0.00,WeatherCatV1.15B25,2013-07-14 07:47:00,
2013-07-14 02:52:00,68.5,62.8,29.95,SE,146,5.0,8.0,82,0.00,,,0.00,WeatherCatV1.15B25,2013-07-14 07:52:00,
2013-07-14 02:57:00,68.5,62.8,29.95,WSW,238,4.0,9.0,82,0.00,,,0.00,WeatherCatV1.15B25,2013-07-14 07:57:00,
2013-07-14 03:02:00,68.6,62.9,29.95,SSE,158,6.0,8.0,82,0.00,,,0.00,WeatherCatV1.15B25,2013-07-14 08:02:00,
2013-07-14 03:07:00,68.6,62.9,29.94,ESE,108,8.0,8.0,82,0.00,,,0.00,WeatherCatV1.15B25,2013-07-14 08:07:00,
2013-07-14 03:12:00,68.7,63.0,29.94,SSE,165,7.0,9.0,82,0.00,,,0.00,WeatherCatV1.15B25,2013-07-14 08:12:00,
2013-07-14 03:17:00,68.8,62.7,29.94,SSE,165,8.0,10.0,81,0.00,,,0.00,WeatherCatV1.15B25,2013-07-14 08:17:00,
2013-07-14 03:22:00,68.9,62.8,29.94,SSE,151,6.0,9.0,81,0.00,,,0.00,WeatherCatV1.15B25,2013-07-14 08:22:00,
2013-07-14 03:27:00,68.8,63.1,29.94,SSE,167,4.0,9.0,82,0.00,,,0.00,WeatherCatV1.15B25,2013-07-14 08:27:00,
2013-07-14 03:32:00,68.6,62.9,29.94,South,180,3.0,6.0,82,0.00,,,0.00,WeatherCatV1.15B25,2013-07-14 08:32:00,
2013-07-14 03:37:00,68.6,62.9,29.93,SE,124,4.0,7.0,82,0.00,,,0.00,WeatherCatV1.15B25,2013-07-14 08:37:00,
2013-07-14 03:42:00,68.4,63.0,29.93,SSE,156,5.0,8.0,83,0.00,,,0.00,WeatherCatV1.15B25,2013-07-14 08:42:00,
2013-07-14 03:47:00,68.3,62.9,29.93,SSE,156,4.0,7.0,83,0.00,,,0.00,WeatherCatV1.15B25,2013-07-14 08:47:00,
2013-07-14 03:52:00,68.2,63.2,29.93,SE,144,5.0,7.0,84,0.00,,,0.00,WeatherCatV1.15B25,2013-07-14 08:52:00,
2013-07-14 03:57:00,68.1,63.1,29.93,SSE,162,5.0,7.0,84,0.00,,,0.00,WeatherCatV1.15B25,2013-07-14 08:57:00,
2013-07-14 04:02:00,68.1,63.1,29.93,SSE,154,8.0,8.0,84,0.00,,,0.00,WeatherCatV1.15B25,2013-07-14 09:02:00,
2013-07-14 04:07:00,68.1,63.1,29.93,SE,144,6.0,8.0,84,0.00,,,0.00,WeatherCatV1.15B25,2013-07-14 09:07:00,
2013-07-14 04:12:00,68.2,63.2,29.93,SSW,205,9.0,9.0,84,0.00,,,0.00,WeatherCatV1.15B25,2013-07-14 09:12:00,
2013-07-14 04:17:00,68.2,63.2,29.93,SE,132,7.0,7.0,84,0.00,,,0.00,WeatherCatV1.15B25,2013-07-14 09:17:00,
2013-07-14 04:22:00,68.3,63.3,29.92,SSE,156,5.0,9.0,84,0.00,,,0.00,WeatherCatV1.15B25,2013-07-14 09:22:00,
2013-07-14 04:27:00,68.4,63.4,29.92,SSE,149,3.0,9.0,84,0.00,,,0.00,WeatherCatV1.15B25,2013-07-14 09:27:00,
2013-07-14 04:32:00,68.4,63.4,29.93,SE,146,6.0,9.0,84,0.00,,,0.00,WeatherCatV1.15B25,2013-07-14 09:32:00,
2013-07-14 04:37:00,68.4,63.4,29.93,ESE,120,4.0,7.0,84,0.00,,,0.00,WeatherCatV1.15B25,2013-07-14 09:37:00,
2013-07-14 04:42:00,68.4,63.4,29.93,SE,131,6.0,9.0,84,0.00,,,0.00,WeatherCatV1.15B25,2013-07-14 09:42:00,
2013-07-14 04:47:00,68.6,63.6,29.93,SE,140,6.0,8.0,84,0.00,,,0.00,WeatherCatV1.15B25,2013-07-14 09:47:00,
2013-07-14 04:52:00,68.6,63.6,29.93,SE,141,5.0,7.0,84,0.00,,,0.00,WeatherCatV1.15B25,2013-07-14 09:52:00,
2013-07-14 04:57:00,68.5,63.5,29.93,SSE,153,5.0,6.0,84,0.00,,,0.00,WeatherCatV1.15B25,2013-07-14 09:57:00,
2013-07-14 05:02:00,68.4,63.4,29.93,SSE,150,4.0,10.0,84,0.00,,,0.00,WeatherCatV1.15B25,2013-07-14 10:02:00,
2013-07-14 05:07:00,68.4,63.4,29.93,SSE,148,8.0,9.0,84,0.00,,,0.00,WeatherCatV1.15B25,2013-07-14 10:07:00,
2013-07-14 05:12:00,68.3,63.3,29.94,SSE,156,6.0,9.0,84,0.00,,,0.00,WeatherCatV1.15B25,2013-07-14 10:12:00,
2013-07-14 05:17:00,68.3,63.3,29.94,SSW,193,4.0,12.0,84,0.00,,,0.00,WeatherCatV1.15B25,2013-07-14 10:17:00,
2013-07-14 05:22:00,68.3,63.3,29.94,SE,143,6.0,10.0,84,0.00,,,0.00,WeatherCatV1.15B25,2013-07-14 10:22:00,
2013-07-14 05:27:00,68.3,63.3,29.95,SE,134,6.0,8.0,84,0.00,,,0.00,WeatherCatV1.15B25,2013-07-14 10:27:00,
2013-07-14 05:32:00,68.4,63.4,29.95,SE,146,4.0,7.0,84,0.00,,,0.00,WeatherCatV1.15B25,2013-07-14 10:32:00,
2013-07-14 05:37:00,68.4,63.0,29.95,SSE,154,6.0,10.0,83,0.00,,,0.00,WeatherCatV1.15B25,2013-07-14 10:37:00,
2013-07-14 05:42:00,68.5,63.1,29.95,SSE,160,6.0,10.0,83,0.00,,,0.00,WeatherCatV1.15B25,2013-07-14 10:42:00,
2013-07-14 05:47:00,68.4,63.0,29.95,SE,144,5.0,13.0,83,0.00,,,0.00,WeatherCatV1.15B25,2013-07-14 10:47:00,
2013-07-14 05:52:00,68.5,63.1,29.96,South,182,9.0,9.0,83,0.00,,,0.00,WeatherCatV1.15B25,2013-07-14 10:52:00,
2013-07-14 05:57:00,68.5,63.1,29.96,SSE,147,5.0,12.0,83,0.00,,,0.00,WeatherCatV1.15B25,2013-07-14 10:57:00,
2013-07-14 06:02:00,68.6,62.9,29.96,SSE,160,8.0,10.0,82,0.00,,,0.00,WeatherCatV1.15B25,2013-07-14 11:02:00,
2013-07-14 06:07:00,68.7,63.0,29.96,SSW,197,5.0,12.0,82,0.00,,,0.00,WeatherCatV1.15B25,2013-07-14 11:07:00,
2013-07-14 06:12:00,68.8,63.1,29.96,SSE,159,7.0,10.0,82,0.00,,,0.00,WeatherCatV1.15B25,2013-07-14 11:12:00,
2013-07-14 06:17:00,68.9,62.8,29.96,SSE,149,11.0,14.0,81,0.00,,,0.00,WeatherCatV1.15B25,2013-07-14 11:17:00,
2013-07-14 06:22:00,69.1,62.7,29.96,SSW,195,9.0,11.0,80,0.00,,,0.00,WeatherCatV1.15B25,2013-07-14 11:22:00,
2013-07-14 06:27:00,69.2,62.8,29.96,SE,145,5.0,12.0,80,0.00,,,0.00,WeatherCatV1.15B25,2013-07-14 11:27:00,
2013-07-14 06:32:00,69.3,62.9,29.96,SE,130,12.0,13.0,80,0.00,,,0.00,WeatherCatV1.15B25,2013-07-14 11:32:00,
2013-07-14 06:37:00,69.4,63.0,29.96,SSE,168,7.0,10.0,80,0.00,,,0.00,WeatherCatV1.15B25,2013-07-14 11:37:00,
2013-07-14 06:42:00,69.5,62.7,29.97,SSE,149,3.0,11.0,79,0.00,,,0.00,WeatherCatV1.15B25,2013-07-14 11:42:00,
2013-07-14 06:47:00,69.5,62.7,29.97,SSE,162,7.0,9.0,79,0.00,,,0.00,WeatherCatV1.15B25,2013-07-14 11:47:00,
2013-07-14 06:52:00,69.6,62.8,29.97,SSE,160,7.0,9.0,79,0.00,,,0.00,WeatherCatV1.15B25,2013-07-14 11:52:00,
2013-07-14 06:57:00,69.6,62.8,29.97,SSW,200,9.0,11.0,79,0.00,,,0.00,WeatherCatV1.15B25,2013-07-14 11:57:00,
2013-07-14 07:02:00,69.6,63.1,29.97,SE,146,8.0,10.0,80,0.00,,,0.00,WeatherCatV1.15B25,2013-07-14 12:02:00,
2013-07-14 07:07:00,69.6,62.8,29.97,South,172,10.0,12.0,79,0.00,,,0.00,WeatherCatV1.15B25,2013-07-14 12:07:00,
2013-07-14 07:12:00,69.7,62.9,29.97,SSE,155,5.0,11.0,79,0.00,,,0.00,WeatherCatV1.15B25,2013-07-14 12:12:00,
2013-07-14 07:17:00,69.7,62.9,29.97,South,183,5.0,9.0,79,0.00,,,0.00,WeatherCatV1.15B25,2013-07-14 12:17:00,
2013-07-14 07:22:00,69.7,63.2,29.98,South,170,4.0,6.0,80,0.00,,,0.00,WeatherCatV1.15B25,2013-07-14 12:22:00,
2013-07-14 07:27:00,69.6,63.1,29.98,South,183,3.0,7.0,80,0.00,,,0.00,WeatherCatV1.15B25,2013-07-14 12:27:00,
2013-07-14 07:32:00,69.6,63.1,29.98,SE,124,5.0,11.0,80,0.00,,,0.00,WeatherCatV1.15B25,2013-07-14 12:32:00,
2013-07-14 07:37:00,69.5,63.4,29.98,SSE,157,4.0,8.0,81,0.00,,,0.00,WeatherCatV1.15B25,2013-07-14 12:37:00,
2013-07-14 07:42:00,69.6,63.1,29.99,SE,139,6.0,9.0,80,0.00,,,0.00,WeatherCatV1.15B25,2013-07-14 12:42:00,
2013-07-14 07:47:00,69.6,63.1,29.99,SSE,153,5.0,10.0,80,0.00,,,0.00,WeatherCatV1.15B25,2013-07-14 12:47:00,
2013-07-14 07:52:00,69.6,63.5,29.99,SSE,153,5.0,10.0,81,0.00,,,0.00,WeatherCatV1.15B25,2013-07-14 12:52:00,
2013-07-14 07:57:00,69.6,63.1,29.99,SSE,165,4.0,9.0,80,0.00,,,0.00,WeatherCatV1.15B25,2013-07-14 12:57:00,
2013-07-14 08:02:00,69.6,63.1,30.00,SW,217,4.0,8.0,80,0.00,,,0.00,WeatherCatV1.15B25,2013-07-14 13:02:00,
2013-07-14 08:07:00,69.7,63.2,30.00,SW,223,5.0,7.0,80,0.00,,,0.00,WeatherCatV1.15B25,2013-07-14 13:07:00,
2013-07-14 08:12:00,69.8,63.3,30.00,SSE,163,2.0,7.0,80,0.00,,,0.00,WeatherCatV1.15B25,2013-07-14 13:12:00,
2013-07-14 08:17:00,69.7,63.2,30.00,South,181,5.0,8.0,80,0.00,,,0.00,WeatherCatV1.15B25,2013-07-14 13:17:00,
2013-07-14 08:22:00,69.8,63.7,30.00,South,174,4.0,7.0,81,0.00,,,0.00,WeatherCatV1.15B25,2013-07-14 13:22:00,
2013-07-14 08:27:00,69.9,63.8,30.00,SSW,200,2.0,6.0,81,0.00,,,0.00,WeatherCatV1.15B25,2013-07-14 13:27:00,
2013-07-14 08:32:00,70.2,64.1,30.00,SSE,155,5.0,8.0,81,0.00,,,0.00,WeatherCatV1.15B25,2013-07-14 13:32:00,
2013-07-14 08:37:00,70.6,64.1,30.00,SSE,155,8.0,11.0,80,0.00,,,0.00,WeatherCatV1.15B25,2013-07-14 13:37:00,
2013-07-14 08:42:00,71.2,64.3,29.99,SSE,155,8.0,11.0,79,0.00,,,0.00,WeatherCatV1.15B25,2013-07-14 13:42:00,
2013-07-14 08:47:00,71.6,64.7,29.99,SE,129,5.0,10.0,79,0.00,,,0.00,WeatherCatV1.15B25,2013-07-14 13:47:00,
2013-07-14 08:52:00,71.6,64.7,30.00,SSE,164,4.0,11.0,79,0.00,,,0.00,WeatherCatV1.15B25,2013-07-14 13:52:00,
2013-07-14 08:57:00,71.8,64.9,30.00,SSE,160,4.0,8.0,79,0.00,,,0.00,WeatherCatV1.15B25,2013-07-14 13:57:00,
2013-07-14 09:02:00,71.8,65.3,30.00,SE,129,6.0,8.0,80,0.00,,,0.00,WeatherCatV1.15B25,2013-07-14 14:02:00,
2013-07-14 09:07:00,71.8,65.3,30.00,SSE,153,6.0,7.0,80,0.00,,,0.00,WeatherCatV1.15B25,2013-07-14 14:07:00,
2013-07-14 09:12:00,71.9,65.4,30.00,SE,144,4.0,5.0,80,0.00,,,0.00,WeatherCatV1.15B25,2013-07-14 14:12:00,
2013-07-14 09:17:00,72.4,66.2,29.99,South,169,7.0,7.0,81,0.00,,,0.00,WeatherCatV1.15B25,2013-07-14 14:17:00,
2013-07-14 09:22:00,73.0,66.1,29.99,SE,134,7.0,8.0,79,0.00,,,0.00,WeatherCatV1.15B25,2013-07-14 14:22:00,
2013-07-14 09:27:00,73.5,66.6,29.99,SSE,165,8.0,11.0,79,0.00,,,0.00,WeatherCatV1.15B25,2013-07-14 14:27:00,
2013-07-14 09:32:00,73.9,67.0,29.99,South,170,4.0,9.0,79,0.00,,,0.00,WeatherCatV1.15B25,2013-07-14 14:32:00,
2013-07-14 09:37:00,74.1,66.4,29.99,SSE,162,5.0,8.0,77,0.00,,,0.00,WeatherCatV1.15B25,2013-07-14 14:37:00,
2013-07-14 09:42:00,74.4,67.1,29.99,SSW,207,3.0,8.0,78,0.00,,,0.00,WeatherCatV1.15B25,2013-07-14 14:42:00,
2013-07-14 09:47:00,74.6,66.1,29.99,SE,141,7.0,12.0,75,0.00,,,0.00,WeatherCatV1.15B25,2013-07-14 14:47:00,
2013-07-14 09:52:00,74.8,65.9,30.00,SSE,162,5.0,12.0,74,0.00,,,0.00,WeatherCatV1.15B25,2013-07-14 14:52:00,
2013-07-14 09:57:00,75.1,67.0,30.00,South,189,3.0,10.0,76,0.00,,,0.00,WeatherCatV1.15B25,2013-07-14 14:57:00,
2013-07-14 10:02:00,75.5,66.6,30.00,South,187,11.0,12.0,74,0.00,,,0.00,WeatherCatV1.15B25,2013-07-14 15:02:00,
2013-07-14 10:07:00,75.9,67.8,30.00,WSW,246,11.0,11.0,76,0.00,,,0.00,WeatherCatV1.15B25,2013-07-14 15:07:00,
2013-07-14 10:12:00,76.3,67.0,30.00,SSE,147,5.0,11.0,73,0.00,,,0.00,WeatherCatV1.15B25,2013-07-14 15:12:00,
2013-07-14 10:17:00,76.5,66.4,30.00,South,176,11.0,14.0,71,0.00,,,0.00,WeatherCatV1.15B25,2013-07-14 15:17:00,
2013-07-14 10:22:00,76.8,66.3,30.01,SE,143,10.0,12.0,70,0.00,,,0.00,WeatherCatV1.15B25,2013-07-14 15:22:00,
2013-07-14 10:27:00,77.0,66.9,30.01,South,175,8.0,13.0,71,0.00,,,0.00,WeatherCatV1.15B25,2013-07-14 15:27:00,
2013-07-14 10:32:00,77.2,66.2,30.01,SE,146,10.0,13.0,69,0.00,,,0.00,WeatherCatV1.15B25,2013-07-14 15:32:00,
2013-07-14 10:37:00,77.4,66.0,30.01,South,191,10.0,14.0,68,0.00,,,0.00,WeatherCatV1.15B25,2013-07-14 15:37:00,
2013-07-14 10:42:00,77.6,66.2,30.00,SSE,154,5.0,11.0,68,0.00,,,0.00,WeatherCatV1.15B25,2013-07-14 15:42:00,
2013-07-14 10:47:00,78.0,67.8,30.01,SSW,209,10.0,16.0,71,0.00,,,0.00,WeatherCatV1.15B25,2013-07-14 15:47:00,
2013-07-14 10:52:00,78.3,66.8,30.01,SE,141,10.0,14.0,68,0.00,,,0.00,WeatherCatV1.15B25,2013-07-14 15:52:00,
2013-07-14 10:57:00,78.5,66.2,30.01,SE,139,11.0,11.0,66,0.00,,,0.00,WeatherCatV1.15B25,2013-07-14 15:57:00,
2013-07-14 11:02:00,78.7,66.8,30.01,South,179,7.0,14.0,67,0.00,,,0.00,WeatherCatV1.15B25,2013-07-14 16:02:00,
2013-07-14 11:07:00,79.0,66.6,30.01,SSE,153,9.0,12.0,66,0.00,,,0.00,WeatherCatV1.15B25,2013-07-14 16:07:00,
2013-07-14 11:12:00,79.1,67.2,30.01,SSW,212,4.0,11.0,67,0.00,,,0.00,WeatherCatV1.15B25,2013-07-14 16:12:00,
2013-07-14 11:17:00,79.4,67.5,30.01,SW,226,6.0,8.0,67,0.00,,,0.00,WeatherCatV1.15B25,2013-07-14 16:17:00,
2013-07-14 11:22:00,79.4,66.6,30.01,SSE,148,4.0,12.0,65,0.00,,,0.00,WeatherCatV1.15B25,2013-07-14 16:22:00,
2013-07-14 11:27:00,79.1,66.7,30.01,SSE,158,4.0,10.0,66,0.00,,,0.00,WeatherCatV1.15B25,2013-07-14 16:27:00,
2013-07-14 11:32:00,79.2,66.4,30.01,SSE,150,8.0,11.0,65,0.00,,,0.00,WeatherCatV1.15B25,2013-07-14 16:32:00,
2013-07-14 11:37:00,80.0,68.0,30.01,SSE,163,6.0,8.0,67,0.00,,,0.00,WeatherCatV1.15B25,2013-07-14 16:37:00,
2013-07-14 11:42:00,80.6,67.3,30.01,SSE,157,9.0,11.0,64,0.00,,,0.00,WeatherCatV1.15B25,2013-07-14 16:42:00,
2013-07-14 11:47:00,80.7,68.3,30.01,SE,142,3.0,11.0,66,0.00,,,0.00,WeatherCatV1.15B25,2013-07-14 16:47:00,
2013-07-14 11:52:00,81.1,67.7,30.01,South,171,5.0,9.0,64,0.00,,,0.00,WeatherCatV1.15B25,2013-07-14 16:52:00,
2013-07-14 11:57:00,81.1,68.2,30.01,SE,146,5.0,10.0,65,0.00,,,0.00,WeatherCatV1.15B25,2013-07-14 16:57:00,
2013-07-14 12:02:00,81.0,67.6,30.01,ESE,123,6.0,10.0,64,0.00,,,0.00,WeatherCatV1.15B25,2013-07-14 17:02:00,
2013-07-14 12:07:00,81.0,66.7,30.01,ESE,119,8.0,11.0,62,0.00,,,0.00,WeatherCatV1.15B25,2013-07-14 17:07:00,
2013-07-14 12:12:00,81.2,67.4,30.01,South,184,9.0,11.0,63,0.00,,,0.00,WeatherCatV1.15B25,2013-07-14 17:12:00,
2013-07-14 12:17:00,81.6,66.3,30.01,SW,221,6.0,10.0,60,0.00,,,0.00,WeatherCatV1.15B25,2013-07-14 17:17:00,
2013-07-14 12:22:00,81.7,67.4,30.01,SSW,194,7.0,12.0,62,0.00,,,0.00,WeatherCatV1.15B25,2013-07-14 17:22:00,
2013-07-14 12:27:00,81.9,66.1,30.01,SE,129,8.0,11.0,59,0.00,,,0.00,WeatherCatV1.15B25,2013-07-14 17:27:00,
2013-07-14 12:32:00,81.7,63.9,30.01,SE,142,8.0,11.0,55,0.00,,,0.00,WeatherCatV1.15B25,2013-07-14 17:32:00,
2013-07-14 12:37:00,81.9,67.1,30.01,SSE,151,7.0,12.0,61,0.00,,,0.00,WeatherCatV1.15B25,2013-07-14 17:37:00,
2013-07-14 12:42:00,82.1,66.8,30.01,SE,138,5.0,11.0,60,0.00,,,0.00,WeatherCatV1.15B25,2013-07-14 17:42:00,
2013-07-14 12:47:00,82.1,66.3,30.01,SSE,157,4.0,11.0,59,0.00,,,0.00,WeatherCatV1.15B25,2013-07-14 17:47:00,
2013-07-14 12:52:00,82.3,65.5,30.01,SSE,155,9.0,11.0,57,0.00,,,0.00,WeatherCatV1.15B25,2013-07-14 17:52:00,
2013-07-14 12:57:00,82.2,63.3,30.01,SSE,149,6.0,12.0,53,0.00,,,0.00,WeatherCatV1.15B25,2013-07-14 17:57:00,
2013-07-14 13:02:00,82.3,65.5,30.01,South,180,8.0,12.0,57,0.00,,,0.00,WeatherCatV1.15B25,2013-07-14 18:02:00,
2013-07-14 13:07:00,82.7,65.4,30.01,South,172,7.0,9.0,56,0.00,,,0.00,WeatherCatV1.15B25,2013-07-14 18:07:00,
2013-07-14 13:12:00,83.2,65.8,30.00,SSE,149,10.0,10.0,56,0.00,,,0.00,WeatherCatV1.15B25,2013-07-14 18:12:00,
2013-07-14 13:17:00,83.1,65.7,30.00,SSE,158,8.0,11.0,56,0.00,,,0.00,WeatherCatV1.15B25,2013-07-14 18:17:00,
2013-07-14 13:22:00,83.1,65.2,30.00,SE,131,9.0,10.0,55,0.00,,,0.00,WeatherCatV1.15B25,2013-07-14 18:22:00,
2013-07-14 13:27:00,82.9,66.6,30.00,SSW,202,10.0,12.0,58,0.00,,,0.00,WeatherCatV1.15B25,2013-07-14 18:27:00,
2013-07-14 13:32:00,83.0,66.2,30.00,SSE,165,6.0,11.0,57,0.00,,,0.00,WeatherCatV1.15B25,2013-07-14 18:32:00,
2013-07-14 13:37:00,83.1,65.7,30.00,SSW,200,8.0,11.0,56,0.00,,,0.00,WeatherCatV1.15B25,2013-07-14 18:37:00,
2013-07-14 13:42:00,83.3,66.4,30.00,ESE,103,5.0,11.0,57,0.00,,,0.00,WeatherCatV1.15B25,2013-07-14 18:42:00,
2013-07-14 13:47:00,83.5,66.6,30.00,ESE,115,7.0,8.0,57,0.00,,,0.00,WeatherCatV1.15B25,2013-07-14 18:47:00,
2013-07-14 13:52:00,83.6,66.7,30.00,SSE,152,6.0,9.0,57,0.00,,,0.00,WeatherCatV1.15B25,2013-07-14 18:52:00,
2013-07-14 13:57:00,84.0,68.1,30.00,South,170,7.0,9.0,59,0.00,,,0.00,WeatherCatV1.15B25,2013-07-14 18:57:00,
2013-07-14 14:02:00,84.3,67.9,30.00,SE,137,4.0,6.0,58,0.00,,,0.00,WeatherCatV1.15B25,2013-07-14 19:02:00,
2013-07-14 14:07:00,84.4,67.5,30.00,SSE,162,5.0,5.0,57,0.00,,,0.00,WeatherCatV1.15B25,2013-07-14 19:07:00,
2013-07-14 14:12:00,84.2,66.8,30.00,SE,135,3.0,10.0,56,0.00,,,0.00,WeatherCatV1.15B25,2013-07-14 19:12:00,
2013-07-14 14:17:00,84.2,68.3,30.00,SE,138,4.0,9.0,59,0.00,,,0.00,WeatherCatV1.15B25,2013-07-14 19:17:00,
2013-07-14 14:22:00,84.2,65.7,30.00,SSE,155,6.0,8.0,54,0.00,,,0.00,WeatherCatV1.15B25,2013-07-14 19:22:00,
2013-07-14 14:27:00,84.3,67.9,30.00,SSW,207,6.0,12.0,58,0.00,,,0.00,WeatherCatV1.15B25,2013-07-14 19:27:00,
2013-07-14 14:32:00,84.8,68.3,30.00,SSE,153,6.0,8.0,58,0.00,,,0.00,WeatherCatV1.15B25,2013-07-14 19:32:00,
2013-07-14 14:37:00,84.7,65.6,30.00,SE,141,7.0,11.0,53,0.00,,,0.00,WeatherCatV1.15B25,2013-07-14 19:37:00,
2013-07-14 14:42:00,84.6,65.6,30.00,SSE,167,6.0,8.0,53,0.00,,,0.00,WeatherCatV1.15B25,2013-07-14 19:42:00,
2013-07-14 14:47:00,84.7,67.7,30.00,South,176,8.0,10.0,57,0.00,,,0.00,WeatherCatV1.15B25,2013-07-14 19:47:00,
2013-07-14 14:52:00,85.1,65.5,30.00,WSW,252,2.0,8.0,52,0.00,,,0.00,WeatherCatV1.15B25,2013-07-14 19:52:00,
2013-07-14 14:57:00,85.3,66.2,30.00,SSW,198,0.0,4.0,53,0.00,,,0.00,WeatherCatV1.15B25,2013-07-14 19:57:00,
2013-07-14 15:02:00,85.5,65.3,30.00,SSE,154,5.0,11.0,51,0.00,,,0.00,WeatherCatV1.15B25,2013-07-14 20:02:00,
2013-07-14 15:07:00,85.3,66.7,30.00,SSE,166,7.0,11.0,54,0.00,,,0.00,WeatherCatV1.15B25,2013-07-14 20:07:00,
2013-07-14 15:13:00,85.3,65.1,30.00,SSE,165,3.0,8.0,51,0.00,,,0.00,WeatherCatV1.15B25,2013-07-14 20:13:00,
2013-07-14 15:18:00,85.4,65.7,30.00,ESE,113,9.0,9.0,52,0.00,,,0.00,WeatherCatV1.15B25,2013-07-14 20:18:00,
2013-07-14 15:23:00,85.2,65.0,30.00,SE,139,6.0,8.0,51,0.00,,,0.00,WeatherCatV1.15B25,2013-07-14 20:23:00,
2013-07-14 15:28:00,84.9,66.4,30.00,ESE,117,4.0,6.0,54,0.00,,,0.00,WeatherCatV1.15B25,2013-07-14 20:28:00,
2013-07-14 15:33:00,84.7,67.7,30.00,SSE,166,2.0,8.0,57,0.00,,,0.00,WeatherCatV1.15B25,2013-07-14 20:33:00,
2013-07-14 15:38:00,85.1,66.6,30.00,SW,223,4.0,9.0,54,0.00,,,0.00,WeatherCatV1.15B25,2013-07-14 20:38:00,
2013-07-14 15:43:00,85.3,65.6,30.00,South,176,5.0,8.0,52,0.00,,,0.00,WeatherCatV1.15B25,2013-07-14 20:43:00,
2013-07-14 15:48:00,85.9,69.9,30.00,SSE,165,3.0,6.0,59,0.00,,,0.00,WeatherCatV1.15B25,2013-07-14 20:48:00,
2013-07-14 15:53:00,85.9,66.7,29.99,SSE,167,0.0,0.0,53,0.00,,,0.00,WeatherCatV1.15B25,2013-07-14 20:53:00,
2013-07-14 15:58:00,85.9,65.6,29.99,ESE,118,0.0,0.0,51,0.00,,,0.00,WeatherCatV1.15B25,2013-07-14 20:58:00,
2013-07-14 16:03:00,85.7,66.6,29.99,SSE,162,0.0,0.0,53,0.00,,,0.00,WeatherCatV1.15B25,2013-07-14 21:03:00,
2013-07-14 16:08:00,85.5,65.8,29.99,SSE,160,0.0,0.0,52,0.00,,,0.00,WeatherCatV1.15B25,2013-07-14 21:08:00,
2013-07-14 16:13:00,85.6,65.9,29.99,SE,143,0.0,0.0,52,0.00,,,0.00,WeatherCatV1.15B25,2013-07-14 21:13:00,
2013-07-14 16:18:00,85.6,64.2,29.99,SSE,166,0.0,0.0,49,0.00,,,0.00,WeatherCatV1.15B25,2013-07-14 21:18:00,
2013-07-14 16:23:00,85.6,65.4,29.99,South,172,0.0,0.0,51,0.00,,,0.00,WeatherCatV1.15B25,2013-07-14 21:23:00,
2013-07-14 16:28:00,85.6,65.4,29.99,SSE,157,0.0,0.0,51,0.00,,,0.00,WeatherCatV1.15B25,2013-07-14 21:28:00,
2013-07-14 16:33:00,85.4,66.8,29.99,SE,136,0.0,0.0,54,0.00,,,0.00,WeatherCatV1.15B25,2013-07-14 21:33:00,
2013-07-14 16:38:00,85.0,66.5,29.99,SE,124,0.0,0.0,54,0.00,,,0.00,WeatherCatV1.15B25,2013-07-14 21:38:00,
2013-07-14 16:43:00,84.4,65.9,29.99,SE,129,0.0,0.0,54,0.00,,,0.00,WeatherCatV1.15B25,2013-07-14 21:43:00,
2013-07-14 16:48:00,84.2,66.8,29.99,South,191,0.0,0.0,56,0.00,,,0.00,WeatherCatV1.15B25,2013-07-14 21:48:00,
2013-07-14 16:53:00,84.6,67.7,29.99,SSE,160,0.0,0.0,57,0.00,,,0.00,WeatherCatV1.15B25,2013-07-14 21:53:00,
2013-07-14 16:58:00,84.8,65.2,29.99,SE,141,0.0,0.0,52,0.00,,,0.00,WeatherCatV1.15B25,2013-07-14 21:58:00,
2013-07-14 17:03:00,84.4,67.5,29.99,ESE,120,0.0,0.0,57,0.00,,,0.00,WeatherCatV1.15B25,2013-07-14 22:03:00,
2013-07-14 17:08:00,83.8,66.9,29.99,SE,127,0.0,0.0,57,0.00,,,0.00,WeatherCatV1.15B25,2013-07-14 22:08:00,
2013-07-14 17:13:00,83.4,67.5,29.99,SE,143,0.0,0.0,59,0.00,,,0.00,WeatherCatV1.15B25,2013-07-14 22:13:00,
2013-07-14 17:18:00,83.4,67.5,29.99,SSE,148,0.0,0.0,59,0.00,,,0.00,WeatherCatV1.15B25,2013-07-14 22:18:00,
2013-07-14 17:23:00,83.9,68.0,29.99,SSE,162,0.0,0.0,59,0.00,,,0.00,WeatherCatV1.15B25,2013-07-14 22:23:00,
2013-07-14 17:28:00,84.1,65.6,29.99,ESE,110,0.0,0.0,54,0.00,,,0.00,WeatherCatV1.15B25,2013-07-14 22:28:00,
2013-07-14 17:33:00,83.9,66.5,29.99,SE,132,0.0,0.0,56,0.00,,,0.00,WeatherCatV1.15B25,2013-07-14 22:33:00,
2013-07-14 17:38:00,83.6,65.7,29.98,ESE,111,0.0,0.0,55,0.00,,,0.00,WeatherCatV1.15B25,2013-07-14 22:38:00,
2013-07-14 17:43:00,84.0,66.6,29.98,SSW,194,0.0,0.0,56,0.00,,,0.00,WeatherCatV1.15B25,2013-07-14 22:43:00,
2013-07-14 17:48:00,84.6,68.2,29.98,SE,125,0.0,0.0,58,0.00,,,0.00,WeatherCatV1.15B25,2013-07-14 22:48:00,
2013-07-14 17:53:00,84.6,67.1,29.98,ESE,112,0.0,0.0,56,0.00,,,0.00,WeatherCatV1.15B25,2013-07-14 22:53:00,
2013-07-14 17:58:00,84.3,67.4,29.98,SE,130,0.0,0.0,57,0.00,,,0.00,WeatherCatV1.15B25,2013-07-14 22:58:00,
2013-07-14 18:03:00,84.4,68.0,29.98,ESE,118,0.0,0.0,58,0.00,,,0.00,WeatherCatV1.15B25,2013-07-14 23:03:00,
2013-07-14 18:08:00,83.9,67.5,29.98,ESE,120,0.0,0.0,58,0.00,,,0.00,WeatherCatV1.15B25,2013-07-14 23:08:00,
2013-07-14 18:13:00,83.9,67.5,29.98,ESE,102,0.0,0.0,58,0.00,,,0.00,WeatherCatV1.15B25,2013-07-14 23:13:00,
2013-07-14 18:18:00,83.6,67.7,29.98,SE,124,0.0,0.0,59,0.00,,,0.00,WeatherCatV1.15B25,2013-07-14 23:18:00,
2013-07-14 18:23:00,83.9,68.5,29.99,SE,127,0.0,0.0,60,0.00,,,0.00,WeatherCatV1.15B25,2013-07-14 23:23:00,
2013-07-14 18:28:00,84.3,66.9,29.99,ESE,112,0.0,0.0,56,0.00,,,0.00,WeatherCatV1.15B25,2013-07-14 23:28:00,
2013-07-14 18:33:00,84.5,67.6,29.98,ESE,103,0.0,0.0,57,0.00,,,0.00,WeatherCatV1.15B25,2013-07-14 23:33:00,
2013-07-14 18:38:00,83.9,66.0,29.98,SE,134,0.0,0.0,55,0.00,,,0.00,WeatherCatV1.15B25,2013-07-14 23:38:00,
2013-07-14 18:43:00,83.7,66.3,29.98,ESE,120,0.0,0.0,56,0.00,,,0.00,WeatherCatV1.15B25,2013-07-14 23:43:00,
2013-07-14 18:48:00,83.3,65.9,29.99,East,101,0.0,0.0,56,0.00,,,0.00,WeatherCatV1.15B25,2013-07-14 23:48:00,
2013-07-14 18:53:00,83.2,66.9,29.98,SE,132,0.0,0.0,58,0.00,,,0.00,WeatherCatV1.15B25,2013-07-14 23:53:00,
2013-07-14 18:58:00,83.4,67.5,29.98,ESE,118,0.0,0.0,59,0.00,,,0.00,WeatherCatV1.15B25,2013-07-14 23:58:00,
2013-07-14 19:03:00,83.3,66.4,29.99,ESE,122,0.0,0.0,57,0.00,,,0.00,WeatherCatV1.15B25,2013-07-15 00:03:00,
2013-07-14 19:08:00,83.2,66.4,29.99,ESE,105,0.0,0.0,57,0.00,,,0.00,WeatherCatV1.15B25,2013-07-15 00:08:00,
2013-07-14 19:13:00,82.9,67.1,29.99,ESE,110,0.0,0.0,59,0.00,,,0.00,WeatherCatV1.15B25,2013-07-15 00:13:00,
2013-07-14 19:18:00,82.6,67.8,29.99,ESE,111,0.0,0.0,61,0.00,,,0.00,WeatherCatV1.15B25,2013-07-15 00:18:00,
2013-07-14 19:23:00,82.0,67.2,29.99,SE,136,0.0,6.0,61,0.00,,,0.00,WeatherCatV1.15B25,2013-07-15 00:23:00,
2013-07-14 19:28:00,81.6,67.3,29.99,East,88,0.0,0.0,62,0.00,,,0.00,WeatherCatV1.15B25,2013-07-15 00:28:00,
2013-07-14 19:33:00,81.2,67.4,29.99,ESE,117,0.0,0.0,63,0.00,,,0.00,WeatherCatV1.15B25,2013-07-15 00:33:00,
2013-07-14 19:38:00,80.8,67.5,29.99,ESE,108,0.0,0.0,64,0.00,,,0.00,WeatherCatV1.15B25,2013-07-15 00:38:00,
2013-07-14 19:43:00,80.6,67.7,30.00,ESE,110,0.0,0.0,65,0.00,,,0.00,WeatherCatV1.15B25,2013-07-15 00:43:00,
2013-07-14 19:48:00,80.3,67.4,30.00,ESE,108,0.0,0.0,65,0.00,,,0.00,WeatherCatV1.15B25,2013-07-15 00:48:00,
2013-07-14 19:53:00,79.9,67.5,30.00,East,101,0.0,0.0,66,0.00,,,0.00,WeatherCatV1.15B25,2013-07-15 00:53:00,
2013-07-14 19:58:00,79.6,67.7,30.00,East,93,0.0,0.0,67,0.00,,,0.00,WeatherCatV1.15B25,2013-07-15 00:58:00,
2013-07-14 20:03:00,79.2,67.7,30.00,ESE,115,0.0,0.0,68,0.00,,,0.00,WeatherCatV1.15B25,2013-07-15 01:03:00,
2013-07-14 20:08:00,78.9,67.4,30.00,ESE,106,0.0,0.0,68,0.00,,,0.00,WeatherCatV1.15B25,2013-07-15 01:08:00,
2013-07-14 20:13:00,78.7,67.7,30.00,SE,131,3.0,4.0,69,0.00,,,0.00,WeatherCatV1.15B25,2013-07-15 01:13:00,
2013-07-14 20:18:00,78.4,67.4,30.00,East,101,3.0,5.0,69,0.00,,,0.00,WeatherCatV1.15B25,2013-07-15 01:18:00,
2013-07-14 20:23:00,78.1,67.5,30.00,ESE,120,3.0,4.0,70,0.00,,,0.00,WeatherCatV1.15B25,2013-07-15 01:23:00,
2013-07-14 20:28:00,77.7,67.1,30.00,ESE,107,3.0,4.0,70,0.00,,,0.00,WeatherCatV1.15B25,2013-07-15 01:28:00,
2013-07-14 20:33:00,77.4,67.2,30.00,ESE,107,3.0,5.0,71,0.00,,,0.00,WeatherCatV1.15B25,2013-07-15 01:33:00,
2013-07-14 20:38:00,77.2,67.0,30.00,ESE,117,4.0,4.0,71,0.00,,,0.00,WeatherCatV1.15B25,2013-07-15 01:38:00,
2013-07-14 20:43:00,77.2,67.0,30.00,ESE,110,4.0,5.0,71,0.00,,,0.00,WeatherCatV1.15B25,2013-07-15 01:43:00,
2013-07-14 20:48:00,76.9,67.2,30.00,ESE,108,4.0,5.0,72,0.00,,,0.00,WeatherCatV1.15B25,2013-07-15 01:48:00,
2013-07-14 20:53:00,76.5,66.8,30.00,ESE,121,3.0,4.0,72,0.00,,,0.00,WeatherCatV1.15B25,2013-07-15 01:53:00,
2013-07-14 20:58:00,76.3,67.0,30.01,ESE,114,3.0,4.0,73,0.00,,,0.00,WeatherCatV1.15B25,2013-07-15 01:58:00,
2013-07-14 21:03:00,76.1,66.8,30.01,ESE,120,3.0,4.0,73,0.00,,,0.00,WeatherCatV1.15B25,2013-07-15 02:03:00,
2013-07-14 21:08:00,76.0,66.7,30.01,ESE,113,4.0,5.0,73,0.00,,,0.00,WeatherCatV1.15B25,2013-07-15 02:08:00,
2013-07-14 21:13:00,76.0,66.3,30.01,SE,125,4.0,5.0,72,0.00,,,0.00,WeatherCatV1.15B25,2013-07-15 02:13:00,
2013-07-14 21:18:00,76.1,66.4,30.01,ESE,114,3.0,5.0,72,0.00,,,0.00,WeatherCatV1.15B25,2013-07-15 02:18:00,
2013-07-14 21:23:00,76.2,66.1,30.02,ESE,113,4.0,5.0,71,0.00,,,0.00,WeatherCatV1.15B25,2013-07-15 02:23:00,
2013-07-14 21:28:00,76.3,66.2,30.02,ESE,122,4.0,6.0,71,0.00,,,0.00,WeatherCatV1.15B25,2013-07-15 02:28:00,
2013-07-14 21:33:00,76.3,66.2,30.02,SE,130,6.0,7.0,71,0.00,,,0.00,WeatherCatV1.15B25,2013-07-15 02:33:00,
2013-07-14 21:38:00,76.2,66.1,30.02,ESE,123,5.0,6.0,71,0.00,,,0.00,WeatherCatV1.15B25,2013-07-15 02:38:00,
2013-07-14 21:43:00,76.1,66.0,30.02,ESE,122,4.0,5.0,71,0.00,,,0.00,WeatherCatV1.15B25,2013-07-15 02:43:00,
2013-07-14 21:48:00,76.0,65.9,30.03,ESE,113,3.0,5.0,71,0.00,,,0.00,WeatherCatV1.15B25,2013-07-15 02:48:00,
2013-07-14 21:53:00,75.7,66.0,30.03,ESE,122,3.0,5.0,72,0.00,,,0.00,WeatherCatV1.15B25,2013-07-15 02:53:00,
2013-07-14 21:58:00,75.5,65.8,30.03,SE,143,3.0,6.0,72,0.00,,,0.00,WeatherCatV1.15B25,2013-07-15 02:58:00,
2013-07-14 22:03:00,75.3,66.0,30.03,ESE,108,3.0,4.0,73,0.00,,,0.00,WeatherCatV1.15B25,2013-07-15 03:03:00,
2013-07-14 22:08:00,75.0,65.7,30.03,SE,139,3.0,4.0,73,0.00,,,0.00,WeatherCatV1.15B25,2013-07-15 03:08:00,
2013-07-14 22:13:00,74.8,65.9,30.04,ESE,117,5.0,5.0,74,0.00,,,0.00,WeatherCatV1.15B25,2013-07-15 03:13:00,
2013-07-14 22:18:00,74.9,65.6,30.04,SE,127,5.0,5.0,73,0.00,,,0.00,WeatherCatV1.15B25,2013-07-15 03:18:00,
2013-07-14 22:23:00,74.9,65.6,30.04,SE,127,3.0,7.0,73,0.00,,,0.00,WeatherCatV1.15B25,2013-07-15 03:23:00,
2013-07-14 22:28:00,74.9,65.6,30.04,ESE,107,4.0,6.0,73,0.00,,,0.00,WeatherCatV1.15B25,2013-07-15 03:28:00,
2013-07-14 22:33:00,74.6,65.7,30.04,SE,146,6.0,6.0,74,0.00,,,0.00,WeatherCatV1.15B25,2013-07-15 03:33:00,
2013-07-14 22:38:00,74.3,65.8,30.04,SE,129,4.0,6.0,75,0.00,,,0.00,WeatherCatV1.15B25,2013-07-15 03:38:00,
2013-07-14 22:43:00,74.0,65.6,30.04,SSE,160,6.0,7.0,75,0.00,,,0.00,WeatherCatV1.15B25,2013-07-15 03:43:00,
2013-07-14 22:48:00,73.8,65.7,30.04,SSE,162,5.0,7.0,76,0.00,,,0.00,WeatherCatV1.15B25,2013-07-15 03:48:00,
2013-07-14 22:53:00,73.6,65.6,30.05,SSE,158,3.0,6.0,76,0.00,,,0.00,WeatherCatV1.15B25,2013-07-15 03:53:00,
2013-07-14 22:58:00,73.5,65.8,30.05,SE,139,5.0,7.0,77,0.00,,,0.00,WeatherCatV1.15B25,2013-07-15 03:58:00,
2013-07-14 23:01:00,73.5,65.8,30.05,SSE,162,5.0,8.0,77,0.00,,,0.00,WeatherCatV1.15B25,2013-07-15 04:01:00,
2013-07-14 23:06:00,73.3,65.6,30.05,SSE,157,5.0,7.0,77,0.00,,,0.00,WeatherCatV1.15B25,2013-07-15 04:06:00,
2013-07-14 23:11:00,73.2,65.5,30.05,ESE,116,4.0,7.0,77,0.00,,,0.00,WeatherCatV1.15B25,2013-07-15 04:11:00,
2013-07-14 23:16:00,72.9,65.6,30.05,SE,124,5.0,6.0,78,0.00,,,0.00,WeatherCatV1.15B25,2013-07-15 04:16:00,
2013-07-14 23:21:00,72.7,65.8,30.05,SE,135,3.0,6.0,79,0.00,,,0.00,WeatherCatV1.15B25,2013-07-15 04:21:00,
2013-07-14 23:26:00,72.5,65.6,30.05,ESE,120,5.0,7.0,79,0.00,,,0.00,WeatherCatV1.15B25,2013-07-15 04:26:00,
2013-07-14 23:31:00,72.5,65.6,30.05,SE,133,5.0,6.0,79,0.00,,,0.00,WeatherCatV1.15B25,2013-07-15 04:31:00,
2013-07-14 23:36:00,72.4,65.5,30.05,ESE,122,4.0,5.0,79,0.00,,,0.00,WeatherCatV1.15B25,2013-07-15 04:36:00,
2013-07-14 23:41:00,72.2,65.3,30.06,SE,127,6.0,6.0,79,0.00,,,0.00,WeatherCatV1.15B25,2013-07-15 04:41:00,
2013-07-14 23:46:00,72.2,65.3,30.06,SE,126,4.0,5.0,79,0.00,,,0.00,WeatherCatV1.15B25,2013-07-15 04:46:00,
2013-07-14 23:51:00,72.2,65.3,30.06,ESE,115,3.0,4.0,79,0.00,,,0.00,WeatherCatV1.15B25,2013-07-15 04:51:00,
2013-07-14 23:56:00,72.1,65.2,30.06,SE,127,4.0,5.0,79,0.00,,,0.00,WeatherCatV1.15B25,2013-07-15 04:56:00,